BEIJING 3B

导读

BEIJING 3B(北京三号B)是中国研制的商业光学遥感卫星,于2022年8月24日发射入轨,是北京三号系列卫星的核心成员之一。它延续了系列卫星“超轻量、高智能”的技术特点,搭载高性能成像载荷,可获取亚米级高分辨率遥感影像,支持星上自主任务规划与智能在轨处理。卫星主要服务于国土资源勘测、生态环境监测、城市精细化管理等领域,能提供精准、高效的空间遥感数据,为中国商业遥感应用体系建设提供重要支撑,推动遥感服务向多领域拓展。

Basic Information
目录编号:
53587
目录名称:
BEIJING 3B
国际标识:
2022-103A
轨道中心:
EARTH
卫星名称:
BEIJING 3B
卫星全名:
--
卫星状态:
在轨 (已飞行1473 天)
发射日期:
2022-08-24 UTC
国别 :
中国 (CN)
星等 :
--
Orbit Information
数据来源 国际轨道数据
星历时间: 2026-09-05T13:18:47+0800
4小时前
查看轨道信息
半长轴: 6985.383km
偏心率: 0.0026035
轨道倾角: 97.796°
近地点辐角 145.223°
升交点赤经 324.208°
平近点角 215.070°
近地点: 589.059km
远地点: 625.433km
周期: 96.838分钟
每日圈数: 14.870224
Detailed Information
使用方式:
暂无
2D Orbit Map
3D Orbit Map
Orbit Altitude Analysis Chart
Orbit Inclination Analysis Chart
Orbit Comprehensive Analysis Chart
View Comprehensive Chart
Conjunction Data List
Event ID Objects TCA Miss Dist (km) Collision Risk Probability Collision Risk Index (CRI) Action
CDM_260907-081105-358706-899622
2026-09-07T
08:11:01+0000
0.802 km
远距离
5.712784E-5 中风险 0.7
CDM_260905-042605-358706-987923
2026-09-05T
04:26:47+0000
2.636 km
极远距离
1.617034E-6 低风险 0.39
CDM_260903-234303-224505-358722
2026-09-03T
23:43:36+0000
2.740 km
极远距离
1.477622E-6 低风险 0.38
CDM_260903-235004-722605-358722
2026-09-03T
23:50:40+0000
2.875 km
极远距离
2.773858E-7 极低风险 0.24